TVF26UN LFPO-LEMG

Flight info

Callsign TVF26UN
Flight time 2h 1m
Altitude 35000
Route AGOPA DCT ARKIP DCT ARMAL DCT ARTAX DCT BEBIX DCT LMG DCT UVELI DCT OSMOB DCT ARVID DCT PPN DCT NOLSA DCT ALEPO DCT VASUM N10 BANEV DCT BAN DCT GOTOR DCT KAMPO DCT MONTO DCT CRISA N864 VULPE
Aircraft B738/M-SDE2E3FGHIRWXY/LB1

Departure

Time 2026-05-07 16:38
Airport Paris-Orly Airport (LFPO)

Arrival

Time 2026-05-07 18:39
Airport Málaga-Costa del Sol Airport (LEMG)
Time Latitude Longitude Altitude Speed Heading
2026-05-07 16:06 48.72419 2.36564 301 ft 0 kts 157°
2026-05-07 16:31 48.72429 2.36558 301 ft 2 kts 179°
2026-05-07 16:31 48.72447 2.36561 300 ft 3 kts 199°
2026-05-07 16:31 48.72464 2.36573 299 ft 3 kts 210°
2026-05-07 16:32 48.72481 2.36588 301 ft 3 kts 209°
2026-05-07 16:32 48.72495 2.36599 301 ft 2 kts 203°
2026-05-07 16:32 48.72504 2.36604 301 ft 1 kts 197°
2026-05-07 16:32 48.72513 2.36608 301 ft 1 kts 191°
2026-05-07 16:33 48.72521 2.36610 299 ft 1 kts 185°
2026-05-07 16:33 48.72523 2.36610 299 ft 0 kts 184°
2026-05-07 16:34 48.72496 2.36587 301 ft 9 kts 233°
2026-05-07 16:35 48.72474 2.36505 298 ft 9 kts 254°
2026-05-07 16:35 48.72444 2.36343 300 ft 18 kts 253°
2026-05-07 16:35 48.72412 2.36161 298 ft 18 kts 256°
2026-05-07 16:35 48.72377 2.35986 297 ft 17 kts 255°
2026-05-07 16:36 48.72347 2.35814 298 ft 17 kts 252°
2026-05-07 16:36 48.72306 2.35650 299 ft 18 kts 233°
2026-05-07 16:36 48.72194 2.35615 298 ft 18 kts 167°
2026-05-07 16:36 48.72081 2.35675 297 ft 17 kts 147°
2026-05-07 16:37 48.71992 2.35849 301 ft 23 kts 120°
2026-05-07 16:37 48.71998 2.36170 298 ft 60 kts 73°
2026-05-07 16:37 48.72183 2.37168 295 ft 135 kts 74°
2026-05-07 16:37 48.72483 2.38812 586 ft 174 kts 75°
2026-05-07 16:38 48.72802 2.40594 1559 ft 186 kts 72°
2026-05-07 16:38 48.73166 2.42556 2413 ft 202 kts 71°
2026-05-07 16:38 48.73574 2.44736 2706 ft 228 kts 72°
2026-05-07 16:38 48.74011 2.47107 3180 ft 239 kts 73°
2026-05-07 16:39 48.74231 2.49680 3617 ft 257 kts 85°
2026-05-07 16:39 48.74293 2.52445 4304 ft 265 kts 86°
2026-05-07 16:39 48.74340 2.55246 5191 ft 266 kts 90°
2026-05-07 16:39 48.73900 2.57983 6007 ft 273 kts 119°
2026-05-07 16:40 48.72638 2.60070 6829 ft 277 kts 146°
2026-05-07 16:40 48.70851 2.61203 7545 ft 282 kts 169°
2026-05-07 16:40 48.68908 2.61654 8334 ft 285 kts 172°
2026-05-07 16:40 48.66934 2.62106 9080 ft 289 kts 172°
2026-05-07 16:41 48.64927 2.62196 9835 ft 291 kts 194°
2026-05-07 16:41 48.63114 2.60869 10458 ft 295 kts 220°
2026-05-07 16:41 48.61681 2.58508 10652 ft 316 kts 233°
2026-05-07 16:41 48.60257 2.55822 10830 ft 339 kts 232°
2026-05-07 16:42 48.58720 2.52975 11015 ft 359 kts 232°
2026-05-07 16:42 48.57107 2.50018 11494 ft 368 kts 231°
2026-05-07 16:42 48.55471 2.47043 12282 ft 369 kts 231°
2026-05-07 16:42 48.53826 2.44061 12992 ft 372 kts 231°
2026-05-07 16:43 48.52703 2.42028 13436 ft 374 kts 231°
2026-05-07 16:43 48.51028 2.38999 14098 ft 377 kts 231°
2026-05-07 16:43 48.49337 2.35945 14704 ft 381 kts 231°
2026-05-07 16:43 48.47652 2.32906 15285 ft 384 kts 231°
2026-05-07 16:44 48.45932 2.29807 15877 ft 387 kts 231°
2026-05-07 16:44 48.44196 2.26683 16463 ft 390 kts 231°
2026-05-07 16:44 48.42448 2.23540 17044 ft 393 kts 231°
2026-05-07 16:44 48.40681 2.20366 17631 ft 396 kts 231°
2026-05-07 16:45 48.38903 2.17174 18180 ft 400 kts 231°
2026-05-07 16:45 48.37107 2.13955 18694 ft 403 kts 231°
2026-05-07 16:45 48.35301 2.10721 19186 ft 405 kts 231°
2026-05-07 16:45 48.33481 2.07467 19677 ft 407 kts 231°
2026-05-07 16:46 48.31630 2.04235 20133 ft 411 kts 226°
2026-05-07 16:46 48.29300 2.01719 20531 ft 417 kts 205°
2026-05-07 16:46 48.26521 2.00465 21077 ft 420 kts 188°
2026-05-07 16:46 48.23583 2.00389 21527 ft 424 kts 178°
2026-05-07 16:47 48.20616 2.00576 21926 ft 428 kts 179°
2026-05-07 16:47 48.17628 2.00712 22353 ft 431 kts 179°
2026-05-07 16:47 48.14626 2.00817 22799 ft 433 kts 180°
2026-05-07 16:47 48.11600 2.00908 23231 ft 435 kts 180°
2026-05-07 16:48 48.08562 2.00996 23647 ft 438 kts 180°
2026-05-07 16:48 48.05508 2.01118 23973 ft 441 kts 179°
2026-05-07 16:48 48.02438 2.01292 24297 ft 443 kts 179°
2026-05-07 16:48 47.99347 2.01486 24621 ft 446 kts 179°
2026-05-07 16:49 47.96241 2.01683 24948 ft 448 kts 179°
2026-05-07 16:49 47.93121 2.01875 25264 ft 450 kts 179°
2026-05-07 16:49 47.89984 2.02063 25564 ft 452 kts 179°
2026-05-07 16:49 47.86826 2.02248 25877 ft 454 kts 179°
2026-05-07 16:50 47.83658 2.02431 26170 ft 457 kts 179°
2026-05-07 16:50 47.80472 2.02614 26457 ft 459 kts 179°
2026-05-07 16:50 47.77279 2.02797 26733 ft 461 kts 179°
2026-05-07 16:50 47.74057 2.02982 27017 ft 463 kts 178°
2026-05-07 16:51 47.70841 2.03167 27285 ft 465 kts 178°
2026-05-07 16:51 47.67632 2.03352 27544 ft 467 kts 178°
2026-05-07 16:51 47.64382 2.03538 27805 ft 469 kts 178°
2026-05-07 16:51 47.61124 2.03726 28188 ft 467 kts 178°
2026-05-07 16:52 47.57884 2.03915 28619 ft 465 kts 178°
2026-05-07 16:52 47.54645 2.04105 28997 ft 465 kts 178°
2026-05-07 16:52 47.51414 2.04294 29344 ft 465 kts 178°
2026-05-07 16:52 47.48182 2.04482 29696 ft 464 kts 178°
2026-05-07 16:53 47.44952 2.04670 30069 ft 463 kts 178°
2026-05-07 16:53 47.41732 2.04857 30389 ft 462 kts 178°
2026-05-07 16:53 47.38519 2.05044 30685 ft 462 kts 178°
2026-05-07 16:53 47.35305 2.05220 30965 ft 462 kts 180°
2026-05-07 16:54 47.32102 2.05007 31226 ft 461 kts 189°
2026-05-07 16:54 47.28953 2.04191 31531 ft 459 kts 191°
2026-05-07 16:54 47.25812 2.03317 31807 ft 459 kts 191°
2026-05-07 16:54 47.22673 2.02460 32070 ft 459 kts 191°
2026-05-07 16:55 47.19531 2.01625 32357 ft 458 kts 191°
2026-05-07 16:55 47.16398 2.00813 32661 ft 457 kts 191°
2026-05-07 16:55 47.13259 2.00013 32906 ft 458 kts 191°
2026-05-07 16:55 47.10115 1.99219 33148 ft 458 kts 191°
2026-05-07 16:56 47.06975 1.98430 33430 ft 457 kts 191°
2026-05-07 16:56 47.03841 1.97644 33692 ft 457 kts 191°
2026-05-07 16:56 46.97573 1.96072 34128 ft 457 kts 191°
2026-05-07 16:57 46.94439 1.95286 34355 ft 456 kts 191°
2026-05-07 16:57 46.91312 1.94503 34555 ft 456 kts 191°
2026-05-07 16:57 46.88185 1.93721 34699 ft 457 kts 191°
2026-05-07 16:57 46.85047 1.92937 34891 ft 456 kts 191°
2026-05-07 16:58 46.78774 1.91371 34993 ft 459 kts 191°
2026-05-07 16:58 46.72432 1.89792 35005 ft 465 kts 191°
2026-05-07 16:59 46.66008 1.88197 34996 ft 470 kts 191°
2026-05-07 16:59 46.59539 1.86595 34982 ft 473 kts 191°
2026-05-07 17:00 46.53044 1.84991 34978 ft 473 kts 191°
2026-05-07 17:00 46.46586 1.83400 34966 ft 468 kts 191°
2026-05-07 17:01 46.40193 1.81827 34976 ft 465 kts 191°
2026-05-07 17:01 46.33821 1.80263 34967 ft 464 kts 191°
2026-05-07 17:02 46.27532 1.78285 34963 ft 462 kts 202°
2026-05-07 17:02 46.21975 1.73762 34956 ft 458 kts 221°
2026-05-07 17:03 46.17200 1.67671 34962 ft 458 kts 223°
2026-05-07 17:03 46.12399 1.61622 34963 ft 459 kts 222°
2026-05-07 17:04 46.07561 1.55622 34963 ft 459 kts 222°
2026-05-07 17:04 46.02706 1.49623 34961 ft 460 kts 222°
2026-05-07 17:05 45.97851 1.43634 34959 ft 459 kts 222°
2026-05-07 17:05 45.93695 1.36752 34965 ft 456 kts 239°
2026-05-07 17:06 45.90843 1.28689 34962 ft 455 kts 245°
2026-05-07 17:06 45.88008 1.20552 34966 ft 455 kts 244°
2026-05-07 17:07 45.85106 1.12406 34965 ft 455 kts 244°
2026-05-07 17:07 45.82088 1.04439 34960 ft 456 kts 236°
2026-05-07 17:08 45.77769 0.97787 34963 ft 458 kts 220°
2026-05-07 17:08 45.72824 0.92030 34968 ft 458 kts 220°
2026-05-07 17:09 45.67904 0.86220 34955 ft 458 kts 221°
2026-05-07 17:09 45.63038 0.80429 34947 ft 458 kts 221°
2026-05-07 17:10 45.58139 0.74597 34938 ft 458 kts 221°
2026-05-07 17:10 45.53238 0.68777 34936 ft 458 kts 221°
2026-05-07 17:11 45.48338 0.62976 34936 ft 458 kts 221°
2026-05-07 17:11 45.43433 0.57182 34930 ft 458 kts 221°
2026-05-07 17:12 45.38512 0.51384 34933 ft 458 kts 221°
2026-05-07 17:12 45.33602 0.45612 34940 ft 458 kts 221°
2026-05-07 17:13 45.28696 0.39857 34934 ft 457 kts 221°
2026-05-07 17:13 45.23791 0.34117 34935 ft 457 kts 221°
2026-05-07 17:14 45.18881 0.28385 34930 ft 457 kts 221°
2026-05-07 17:14 45.13970 0.22663 34932 ft 457 kts 221°
2026-05-07 17:15 45.09065 0.16960 34931 ft 456 kts 221°
2026-05-07 17:15 45.04158 0.11270 34929 ft 456 kts 221°
2026-05-07 17:16 44.99255 0.05601 34930 ft 455 kts 221°
2026-05-07 17:16 44.94353 -0.00055 34929 ft 455 kts 221°
2026-05-07 17:17 44.89454 -0.05698 34931 ft 454 kts 221°
2026-05-07 17:17 44.84556 -0.11329 34931 ft 454 kts 221°
2026-05-07 17:18 44.79657 -0.16946 34927 ft 454 kts 221°
2026-05-07 17:18 44.74725 -0.22591 34925 ft 454 kts 221°
2026-05-07 17:19 44.69826 -0.28187 34927 ft 453 kts 221°
2026-05-07 17:19 44.64928 -0.33691 34926 ft 454 kts 217°
2026-05-07 17:20 44.59400 -0.38026 34927 ft 456 kts 209°
2026-05-07 17:20 44.53743 -0.42066 34922 ft 456 kts 209°
2026-05-07 17:21 44.49024 -0.45481 34918 ft 455 kts 209°
2026-05-07 17:21 44.43411 -0.49581 34920 ft 455 kts 210°
2026-05-07 17:22 44.37806 -0.53683 34913 ft 455 kts 210°
2026-05-07 17:22 44.32204 -0.57776 34916 ft 454 kts 210°
2026-05-07 17:23 44.26598 -0.61859 34911 ft 454 kts 210°
2026-05-07 17:23 44.21000 -0.65927 34912 ft 453 kts 210°
2026-05-07 17:24 44.15402 -0.69986 34906 ft 453 kts 210°
2026-05-07 17:24 44.09814 -0.74029 34910 ft 453 kts 210°
2026-05-07 17:25 44.04225 -0.78064 34904 ft 452 kts 210°
2026-05-07 17:25 43.98633 -0.82093 34905 ft 452 kts 210°
2026-05-07 17:26 43.93054 -0.86104 34909 ft 452 kts 210°
2026-05-07 17:26 43.87460 -0.90117 34909 ft 452 kts 210°
2026-05-07 17:27 43.81883 -0.94108 34910 ft 451 kts 210°
2026-05-07 17:27 43.76305 -0.98093 34913 ft 451 kts 210°
2026-05-07 17:28 43.70729 -1.02068 34912 ft 451 kts 209°
2026-05-07 17:28 43.65190 -1.06008 34913 ft 450 kts 210°
2026-05-07 17:29 43.59615 -1.09966 34909 ft 450 kts 209°
2026-05-07 17:29 43.54040 -1.13915 34908 ft 450 kts 209°
2026-05-07 17:30 43.48465 -1.17856 34909 ft 450 kts 209°
2026-05-07 17:30 43.42896 -1.21784 34908 ft 450 kts 209°
2026-05-07 17:31 43.37318 -1.25711 34911 ft 449 kts 209°
2026-05-07 17:31 43.31744 -1.29627 34909 ft 449 kts 209°
2026-05-07 17:32 43.26189 -1.33522 34914 ft 449 kts 209°
2026-05-07 17:32 43.20619 -1.37419 34910 ft 449 kts 209°
2026-05-07 17:33 43.15055 -1.41305 34911 ft 449 kts 209°
2026-05-07 17:33 43.09482 -1.45188 34908 ft 449 kts 209°
2026-05-07 17:34 43.03918 -1.49060 34924 ft 448 kts 209°
2026-05-07 17:34 42.98414 -1.52888 34904 ft 444 kts 208°
2026-05-07 17:35 42.92923 -1.56700 34910 ft 440 kts 208°
2026-05-07 17:35 42.87447 -1.60496 34917 ft 439 kts 208°
2026-05-07 17:36 42.82016 -1.64253 34910 ft 439 kts 208°
2026-05-07 17:36 42.76545 -1.68031 34918 ft 439 kts 208°
2026-05-07 17:37 42.71108 -1.71761 34917 ft 440 kts 208°
2026-05-07 17:37 42.65608 -1.75452 34911 ft 441 kts 208°
2026-05-07 17:38 42.60096 -1.79138 34916 ft 442 kts 208°
2026-05-07 17:38 42.54570 -1.82837 34917 ft 443 kts 208°
2026-05-07 17:39 42.49063 -1.86519 34920 ft 443 kts 208°
2026-05-07 17:39 42.43510 -1.90225 34918 ft 444 kts 208°
2026-05-07 17:40 42.37992 -1.93905 34919 ft 444 kts 208°
2026-05-07 17:40 42.32432 -1.97610 34916 ft 445 kts 208°
2026-05-07 17:41 42.26858 -2.01325 34916 ft 446 kts 208°
2026-05-07 17:41 42.21269 -2.05036 34921 ft 447 kts 208°
2026-05-07 17:42 42.15695 -2.08728 34923 ft 447 kts 208°
2026-05-07 17:42 42.10093 -2.12428 34925 ft 448 kts 208°
2026-05-07 17:43 42.04486 -2.16124 34919 ft 448 kts 209°
2026-05-07 17:43 41.98913 -2.19792 34936 ft 449 kts 209°
2026-05-07 17:44 41.93285 -2.23490 34935 ft 449 kts 209°
2026-05-07 17:44 41.87655 -2.27182 34945 ft 450 kts 209°
2026-05-07 17:45 41.82044 -2.30854 34945 ft 451 kts 209°
2026-05-07 17:45 41.76397 -2.34543 34946 ft 451 kts 209°
2026-05-07 17:46 41.70783 -2.38203 34940 ft 451 kts 210°
2026-05-07 17:46 41.65142 -2.41873 34940 ft 452 kts 210°
2026-05-07 17:47 41.59487 -2.45546 34948 ft 452 kts 210°
2026-05-07 17:47 41.53838 -2.49209 34944 ft 452 kts 210°
2026-05-07 17:48 41.48151 -2.52885 34932 ft 453 kts 210°
2026-05-07 17:48 41.42459 -2.56544 34931 ft 453 kts 210°
2026-05-07 17:49 41.36798 -2.60179 34930 ft 453 kts 210°
2026-05-07 17:49 41.31177 -2.63961 34927 ft 449 kts 217°
2026-05-07 17:50 41.26101 -2.68663 34924 ft 447 kts 220°
2026-05-07 17:50 41.21003 -2.73446 34929 ft 448 kts 220°
2026-05-07 17:51 41.15878 -2.78185 34931 ft 448 kts 220°
2026-05-07 17:51 41.10762 -2.82875 34934 ft 448 kts 220°
2026-05-07 17:52 41.05612 -2.87580 34936 ft 448 kts 220°
2026-05-07 17:52 41.00460 -2.92278 34927 ft 448 kts 220°
2026-05-07 17:53 40.95347 -2.96933 34939 ft 448 kts 220°
2026-05-07 17:53 40.90199 -3.01611 34938 ft 448 kts 220°
2026-05-07 17:54 40.85053 -3.06280 34930 ft 448 kts 221°
2026-05-07 17:54 40.79939 -3.10909 34932 ft 448 kts 221°
2026-05-07 17:55 40.74776 -3.15575 34930 ft 448 kts 221°
2026-05-07 17:55 40.69655 -3.20193 34929 ft 447 kts 221°
2026-05-07 17:56 40.64523 -3.24813 34931 ft 447 kts 221°
2026-05-07 17:56 40.59409 -3.29408 34932 ft 446 kts 221°
2026-05-07 17:57 40.55132 -3.33244 34933 ft 446 kts 222°
2026-05-07 17:57 40.49156 -3.38594 34938 ft 445 kts 222°
2026-05-07 17:58 40.44013 -3.43189 34934 ft 445 kts 223°
2026-05-07 17:58 40.38889 -3.47759 34930 ft 444 kts 223°
2026-05-07 17:59 40.33800 -3.52288 34926 ft 443 kts 223°
2026-05-07 17:59 40.28689 -3.56829 34917 ft 443 kts 223°
2026-05-07 18:00 40.23590 -3.61353 34919 ft 441 kts 223°
2026-05-07 18:00 40.18544 -3.65820 34908 ft 440 kts 223°
2026-05-07 18:01 40.13485 -3.70293 34911 ft 438 kts 223°
2026-05-07 18:01 40.08427 -3.74752 34900 ft 437 kts 223°
2026-05-07 18:02 40.00878 -3.81387 34903 ft 436 kts 223°
2026-05-07 18:03 39.96664 -3.85086 34887 ft 435 kts 223°
2026-05-07 18:03 39.91672 -3.89460 34888 ft 434 kts 223°
2026-05-07 18:04 39.86645 -3.93858 34892 ft 434 kts 223°
2026-05-07 18:04 39.81627 -3.98241 34882 ft 433 kts 222°
2026-05-07 18:05 39.76644 -4.02588 34880 ft 433 kts 222°
2026-05-07 18:05 39.71628 -4.06952 34883 ft 433 kts 222°
2026-05-07 18:06 39.66619 -4.11315 34875 ft 433 kts 222°
2026-05-07 18:06 39.61648 -4.15640 34879 ft 433 kts 222°
2026-05-07 18:07 39.56630 -4.19998 34887 ft 433 kts 222°
2026-05-07 18:07 39.51641 -4.24324 34860 ft 433 kts 222°
2026-05-07 18:08 39.46636 -4.28655 34864 ft 432 kts 221°
2026-05-07 18:08 39.41635 -4.32976 34868 ft 431 kts 221°
2026-05-07 18:09 39.36648 -4.37278 34868 ft 431 kts 221°
2026-05-07 18:09 39.31663 -4.41570 34878 ft 430 kts 221°
2026-05-07 18:10 39.26696 -4.45840 34868 ft 429 kts 221°
2026-05-07 18:10 39.21403 -4.49478 34878 ft 444 kts 208°
2026-05-07 18:11 39.15274 -4.51258 34884 ft 458 kts 197°
2026-05-07 18:11 39.08971 -4.52474 34876 ft 457 kts 198°
2026-05-07 18:12 39.02691 -4.53763 34866 ft 456 kts 198°
2026-05-07 18:12 38.96426 -4.55073 34864 ft 455 kts 198°
2026-05-07 18:13 38.90173 -4.56379 34849 ft 455 kts 198°
2026-05-07 18:13 38.83927 -4.57688 34844 ft 454 kts 198°
2026-05-07 18:14 38.77682 -4.58995 34838 ft 454 kts 198°
2026-05-07 18:14 38.71458 -4.60297 34842 ft 453 kts 198°
2026-05-07 18:15 38.65242 -4.61594 34851 ft 452 kts 198°
2026-05-07 18:15 38.59027 -4.62889 34848 ft 452 kts 198°
2026-05-07 18:16 38.52874 -4.64166 34847 ft 451 kts 198°
2026-05-07 18:16 38.46680 -4.65453 34847 ft 450 kts 198°
2026-05-07 18:17 38.40652 -4.66690 34836 ft 423 kts 198°
2026-05-07 18:17 38.37792 -4.67278 34828 ft 408 kts 199°
2026-05-07 18:17 38.35036 -4.67848 34834 ft 394 kts 199°
2026-05-07 18:17 38.32383 -4.68395 34827 ft 381 kts 199°
2026-05-07 18:18 38.29790 -4.68933 34603 ft 374 kts 199°
2026-05-07 18:18 38.27223 -4.69460 34243 ft 372 kts 199°
2026-05-07 18:18 38.24658 -4.69985 33732 ft 374 kts 199°
2026-05-07 18:18 38.22943 -4.70340 33046 ft 383 kts 199°
2026-05-07 18:19 38.22660 -4.70399 32918 ft 385 kts 199°
2026-05-07 18:19 38.19951 -4.70966 31684 ft 404 kts 197°
2026-05-07 18:19 38.17160 -4.71536 31282 ft 404 kts 197°
2026-05-07 18:19 38.14339 -4.72109 30785 ft 417 kts 197°
2026-05-07 18:20 38.11453 -4.72695 30141 ft 429 kts 196°
2026-05-07 18:20 38.08498 -4.73289 29465 ft 430 kts 195°
2026-05-07 18:20 38.05526 -4.73883 28747 ft 433 kts 195°
2026-05-07 18:20 38.02529 -4.74484 28044 ft 436 kts 195°
2026-05-07 18:21 37.99529 -4.75086 27367 ft 437 kts 195°
2026-05-07 18:21 37.96510 -4.75694 26700 ft 438 kts 195°
2026-05-07 18:21 37.93498 -4.76299 26059 ft 439 kts 194°
2026-05-07 18:21 37.90512 -4.76901 25433 ft 440 kts 194°
2026-05-07 18:22 37.87488 -4.77510 24811 ft 440 kts 194°
2026-05-07 18:22 37.85441 -4.77922 24402 ft 440 kts 194°
2026-05-07 18:22 37.81439 -4.78726 23608 ft 437 kts 194°
2026-05-07 18:22 37.78442 -4.79327 22931 ft 433 kts 194°
2026-05-07 18:23 37.75470 -4.79924 22246 ft 431 kts 193°
2026-05-07 18:23 37.72518 -4.80521 21588 ft 427 kts 194°
2026-05-07 18:23 37.69596 -4.81114 20956 ft 423 kts 194°
2026-05-07 18:23 37.66729 -4.81698 20343 ft 420 kts 193°
2026-05-07 18:24 37.63853 -4.82283 19741 ft 416 kts 193°
2026-05-07 18:24 37.61000 -4.82863 19149 ft 413 kts 193°
2026-05-07 18:24 37.58159 -4.83440 18559 ft 410 kts 193°
2026-05-07 18:24 37.55348 -4.84009 17962 ft 407 kts 193°
2026-05-07 18:25 37.52592 -4.84569 17313 ft 404 kts 193°
2026-05-07 18:25 37.49814 -4.85132 16677 ft 401 kts 192°
2026-05-07 18:25 37.47057 -4.85690 16041 ft 399 kts 192°
2026-05-07 18:25 37.44326 -4.86241 15426 ft 396 kts 191°
2026-05-07 18:26 37.41639 -4.86784 14832 ft 393 kts 191°
2026-05-07 18:26 37.38932 -4.87330 14202 ft 391 kts 191°
2026-05-07 18:26 37.36247 -4.87870 13551 ft 390 kts 191°
2026-05-07 18:26 37.33564 -4.88408 12842 ft 388 kts 191°
2026-05-07 18:27 37.30912 -4.88940 12148 ft 380 kts 190°
2026-05-07 18:27 37.28373 -4.89449 11515 ft 368 kts 190°
2026-05-07 18:27 37.25880 -4.89948 10894 ft 357 kts 190°
2026-05-07 18:27 37.23462 -4.90432 10287 ft 347 kts 189°
2026-05-07 18:28 37.21098 -4.90905 9682 ft 340 kts 189°
2026-05-07 18:28 37.18779 -4.91362 9025 ft 334 kts 189°
2026-05-07 18:28 37.16497 -4.91809 8383 ft 329 kts 189°
2026-05-07 18:28 37.14271 -4.92246 7763 ft 326 kts 189°
2026-05-07 18:29 37.12044 -4.92684 7194 ft 320 kts 189°
2026-05-07 18:29 37.09899 -4.93105 6948 ft 302 kts 189°
2026-05-07 18:29 37.07873 -4.93501 6700 ft 288 kts 189°
2026-05-07 18:29 37.05926 -4.93751 6442 ft 277 kts 176°
2026-05-07 18:30 37.04170 -4.92974 6217 ft 268 kts 148°
2026-05-07 18:30 37.02641 -4.91668 5968 ft 258 kts 148°
2026-05-07 18:30 37.01181 -4.90474 5725 ft 250 kts 148°
2026-05-07 18:30 36.99722 -4.89294 5508 ft 248 kts 149°
2026-05-07 18:31 36.98281 -4.88130 5282 ft 245 kts 148°
2026-05-07 18:31 36.96851 -4.86973 5064 ft 242 kts 149°
2026-05-07 18:31 36.95462 -4.85845 4873 ft 239 kts 149°
2026-05-07 18:31 36.94072 -4.84725 4718 ft 234 kts 149°
2026-05-07 18:32 36.92718 -4.83627 4543 ft 230 kts 149°
2026-05-07 18:32 36.91369 -4.82539 4370 ft 232 kts 149°
2026-05-07 18:32 36.90009 -4.81442 4178 ft 234 kts 149°
2026-05-07 18:32 36.88636 -4.80331 3984 ft 234 kts 150°
2026-05-07 18:33 36.87267 -4.79232 3816 ft 231 kts 148°
2026-05-07 18:33 36.85965 -4.78180 3681 ft 219 kts 149°
2026-05-07 18:33 36.84710 -4.77169 3546 ft 212 kts 149°
2026-05-07 18:33 36.83468 -4.76171 3436 ft 213 kts 149°
2026-05-07 18:34 36.82217 -4.75188 3320 ft 212 kts 150°
2026-05-07 18:34 36.80968 -4.74221 3198 ft 210 kts 150°
2026-05-07 18:34 36.79728 -4.73260 3109 ft 209 kts 150°
2026-05-07 18:34 36.78504 -4.72307 3089 ft 204 kts 149°
2026-05-07 18:35 36.77572 -4.71066 3074 ft 197 kts 117°
2026-05-07 18:35 36.77006 -4.69540 3096 ft 194 kts 119°
2026-05-07 18:35 36.76379 -4.68046 3076 ft 192 kts 121°
2026-05-07 18:35 36.75744 -4.66554 2842 ft 197 kts 120°
2026-05-07 18:36 36.75108 -4.65038 2577 ft 198 kts 120°
2026-05-07 18:36 36.74469 -4.63528 2325 ft 196 kts 120°
2026-05-07 18:36 36.73843 -4.62040 2085 ft 191 kts 119°
2026-05-07 18:36 36.73231 -4.60586 1841 ft 186 kts 120°
2026-05-07 18:37 36.72645 -4.59194 1566 ft 181 kts 118°
2026-05-07 18:37 36.72076 -4.57857 1405 ft 164 kts 119°
2026-05-07 18:37 36.71551 -4.56608 1101 ft 160 kts 117°
2026-05-07 18:37 36.71061 -4.55439 932 ft 147 kts 116°
2026-05-07 18:38 36.70600 -4.54332 732 ft 140 kts 118°
2026-05-07 18:38 36.70157 -4.53282 535 ft 136 kts 116°
2026-05-07 18:38 36.69881 -4.52612 356 ft 135 kts 119°
2026-05-07 18:38 36.69445 -4.51592 219 ft 137 kts 117°
2026-05-07 18:39 36.69001 -4.50540 62 ft 137 kts 117°
2026-05-07 18:39 36.68595 -4.49568 46 ft 110 kts 117°
2026-05-07 18:39 36.68352 -4.49023 43 ft 46 kts 130°
2026-05-07 18:39 36.68175 -4.48858 38 ft 15 kts 164°
2026-05-07 18:40 36.68149 -4.48946 39 ft 14 kts 296°
2026-05-07 18:40 36.68196 -4.49058 39 ft 14 kts 298°
2026-05-07 18:40 36.68242 -4.49166 39 ft 14 kts 297°
2026-05-07 18:40 36.68281 -4.49273 40 ft 13 kts 283°
2026-05-07 18:41 36.68237 -4.49368 39 ft 15 kts 223°
2026-05-07 18:41 36.68159 -4.49454 41 ft 15 kts 221°
2026-05-07 18:41 36.68083 -4.49538 41 ft 14 kts 221°
2026-05-07 18:41 36.68001 -4.49539 41 ft 14 kts 133°
2026-05-07 18:42 36.67949 -4.49467 41 ft 7 kts 135°
2026-05-07 18:42 36.67921 -4.49471 41 ft 4 kts 206°
2026-05-07 18:42 36.67897 -4.49491 41 ft 4 kts 213°
2026-05-07 18:42 36.67892 -4.49495 39 ft 0 kts 213°